Torna al catalogo

FENGYUN 1C DEB

AttivoPO
NORAD 30246·DEBRIS·🇨🇳 China

Lanciato May 10, 1999 da Taiyuan Satellite Launch Center

Loading…

Prossimi Passaggi (prossime 24 ore)

TLE

AggiornatoSource: Space-Track

Epoca: Sep 14, 2026, 06:05 UTC

1 30246U 99025XF  26257.25380362  .00000100  00000-0  17071-3 0  9991
2 30246  98.7064   6.2443 0370884 127.6994 265.9956 13.37161374958222

Traccia FENGYUN 1C DEB in tempo reale con AllMySat

Download on the App Store